Regional Weather Roundup
Issued by NWS Goodland, KS

Home | Current Version | Previous Version | Graphics & Text | Print | Product List | Glossary On
Versions: 1 2 3 4 5 6 7 8 9 10 11 12 13 14 15 16 17 18 19 20 21 22 23 24 25 26 27 28 29 30 31 32 33 34 35 36 37 38 39 40 41 42 43 44 45 46 47 48 49 50
000
ASUS43 KGLD 301708
RWRGLD

GOODLAND FORECAST AREA HOURLY WEATHER ROUNDUP
NATIONAL WEATHER SERVICE GOODLAND KS
1100 AM MDT MON MAR 30 2015

...OFFICIAL OBSERVATIONS...

CITY           SKY/WX    TMP DP  RH WIND       PRES   REMARKS
GOODLAND KS    SUNNY     71  22  15 NW21      30.08F
HILL CITY KS   SUNNY     71  29  21 SW24G32   30.06F
IMPERIAL NEB     N/A     66  25  21 NW16      30.07S
MCCOOK NEB     SUNNY     70  27  20 W9        30.04F
AKRON CO       SUNNY     67  20  16 N22G28    30.14
BURLINGTON CO  SUNNY     72  16  12 NW16      30.12S
LIMON CO       SUNNY     66  18  15 CALM      30.18S
$$

...UNOFFICIAL OBSERVATIONS...

CITY           SKY/WX    TMP DP  RH WIND       PRES   REMARKS
COLBY KS       SUNNY     72  32  23 W17       30.07F
GOVE KS          N/A     68  32  26 MISG        N/A
LENORA KS        N/A     68  32  26 MISG        N/A
NORTON KS      SUNNY     73  23  15 SW22G30   30.03F
SHARON SPRINGS   N/A     69  34  27 N6          N/A
KIT CARSON CO    N/A     71  27  19 MISG        N/A
YUMA CO          N/A     66  20  17 NW20        N/A
$$



USA.gov is the U.S. government's official web portal to all federal, state and local government web resources and services.